[[{"header":{"parameterUnit":"m.s-1","parameterCategory":1,"la1":30.2991,"la2":30.254,"lo1":-89.0895,"lo2":-89.0444,"dy":0.0017,"dx":0.0017,"nx":28,"ny":28,"refTime":"2025-08-22T21:00:00:Z","depth":0,"parameterNumber":2,"parameterNumberName":"U-component_of_WINDS"},"data":[0,0,0,0,0,0,0,0,0,0,0,0,0,0,0,0,0,0,0,0,0,0,0,0,0,0,0,0,0,0,0,0,0,0,0,0,0,0,0,0,0,0,0,0,0,0,0,0,0,0,0,0,0,0,0,0,0,0,3.0297,3.0298,0,3.0385,3.0386,3.0387,3.036,3.0358,3.0356,3.0355,3.0444,3.0448,3.0453,0,0,0,0,0,0,0,0,0,0,0,0,0,3.0104,3.0108,3.0297,3.0298,3.0299,3.0385,3.0387,3.0388,3.036,3.0358,3.0356,3.0354,3.0443,3.0448,3.0453,0,0,0,0,0,0,0,0,0,0,0,0,0,3.0189,3.0109,3.0297,3.0296,3.0297,3.0385,3.0387,3.0388,3.0361,3.0358,3.0355,3.0353,3.0441,3.0448,3.0454,3.0548,0,0,3.0473,3.0475,0,0,0,0,0,0,0,0,3.0185,3.0197,3.0295,3.0296,3.0297,3.0359,3.0351,3.0442,3.0362,3.0337,3.0354,3.0351,3.0418,3.0426,3.0449,3.0552,3.0556,3.0473,3.0477,3.048,3.0481,0,0,0,0,0,0,0,3.0179,3.0193,3.0332,3.0297,3.0298,3.0291,3.03,3.0368,3.0392,3.0339,3.0337,3.0348,3.0418,3.0443,3.0451,3.0557,3.0473,3.0478,3.0482,3.0485,3.0739,3.0742,0,0,0,0,0,0,3.0172,3.0188,3.0329,3.0335,3.0233,3.0297,3.0307,3.0342,3.0391,3.0396,3.035,3.0346,3.0434,3.0444,3.0454,3.0565,3.0479,3.0485,3.0489,3.0736,3.074,3.0743,0,0,0,0,0,0,3.0168,3.0185,3.0326,3.0261,3.0278,3.0303,3.0343,3.0345,3.037,3.04,3.0404,3.0371,3.0432,3.0445,3.0524,3.0568,3.0488,3.0494,3.0733,3.0738,3.0742,3.079,0,0,0,0,0,0,3.0163,3.0184,3.022,3.0262,3.0282,3.0395,3.0345,3.0349,3.0381,3.0376,3.042,3.0425,3.0431,3.0515,3.053,3.0575,3.0499,3.0729,3.0735,3.074,3.0784,3.0795,3.0805,0,0,0,0,0,3.0156,3.0231,3.0222,3.0239,3.0328,3.0398,3.0409,3.0414,3.0384,3.042,3.0439,3.0424,3.0561,3.0523,3.054,3.0587,3.0726,3.0733,3.074,3.0779,3.0793,3.0804,0,0,0,0,0,0,3.0194,3.0236,3.0227,3.0318,3.0354,3.0393,3.0439,3.0429,3.0474,3.0468,3.0473,3.0483,3.0564,3.0584,3.0541,3.068,3.0639,3.065,3.0663,3.0676,3.0687,3.0679,3.0504,0,0,0,0,0,3.0213,3.0266,3.03,3.0377,3.0396,3.0414,3.0445,3.0446,3.0484,3.0499,3.0524,3.0561,3.0612,3.0646,3.0695,3.0788,3.0795,3.0828,3.0839,3.0847,3.0855,3.0903,3.0917,3.0766,3.0766,3.0766,0,0,3.0252,3.0282,3.0316,3.0385,3.0414,3.0468,3.0427,3.0487,3.0527,3.0508,3.0583,3.0603,3.0645,3.073,3.0769,3.0749,3.0899,3.0856,3.0862,3.0866,3.0912,3.0926,3.0939,3.0771,3.077,3.0769,0,0,3.0351,3.0381,3.0446,3.0475,3.0518,3.053,3.0546,3.0586,3.0598,3.0674,3.066,3.0707,3.0797,3.0826,3.0853,3.0962,3.0948,3.0978,3.103,3.1077,3.1089,3.11,3.1136,3.1149,3.0987,3.0987,3.0987,0,3.0395,3.0476,3.0481,3.0541,3.0571,3.0557,3.0622,3.065,3.0708,3.0728,3.0706,3.0815,3.0843,3.0934,3.096,3.0983,3.1,3.0972,3.1087,3.1098,3.1108,3.1142,3.1156,3.099,3.0989,3.0989,3.0989,0,3.0526,3.0583,3.0631,3.0685,3.0721,3.0784,3.0798,3.0833,3.0831,3.0845,3.0921,3.0953,3.1007,3.103,3.1029,3.112,3.1106,3.1086,3.1044,3.1125,3.1157,3.1171,3.0994,3.0993,3.0992,3.0991,0,0,3.0651,3.0707,3.0724,3.0748,3.0794,3.0837,3.0899,3.0952,3.0981,3.1021,3.1071,3.1147,3.1127,3.1158,3.116,3.1201,3.1282,3.1175,3.1176,3.1191,3.1382,3.1395,3.141,3.1274,3.1277,3.1279,3.1377,0,3.0752,3.086,3.0865,3.0963,3.1014,3.1,3.1054,3.1087,3.1102,3.1147,3.1163,3.1215,3.1187,3.1205,3.1245,3.1264,3.132,3.1257,3.1319,3.1321,3.1306,3.1428,3.1443,3.1534,3.139,3.1393,3.1394,0,3.0884,3.0927,3.1029,3.1066,3.1088,3.1136,3.1183,3.1227,3.1264,3.1272,3.1305,3.1301,3.1363,3.1321,3.1405,3.1362,3.1388,3.1401,3.1405,3.1409,3.1361,3.1432,3.1564,3.1576,3.1415,3.1413,3.1412,0,3.0961,3.1045,3.1116,3.1137,3.1183,3.1216,3.1237,3.1272,3.1302,3.1344,3.1364,3.1413,3.1439,3.1476,3.1485,3.1454,3.1568,3.1528,3.1574,3.1574,3.1597,3.1595,3.1732,3.1619,3.1618,3.1618,3.1618,0,3.1072,3.1135,3.1151,3.1195,3.1264,3.127,3.1338,3.1356,3.1387,3.1433,3.1425,3.1469,3.1479,3.1524,3.1531,3.1598,3.1611,3.1617,3.1618,3.1617,3.1615,3.1632,3.1625,3.1622,3.1621,3.162,3.162,0,3.1169,3.1183,3.126,3.1296,3.1307,3.1356,3.1387,3.1428,3.1441,3.15,3.1514,3.1535,3.1587,3.16,3.1664,3.1668,3.1747,3.1743,3.1734,3.1732,3.1777,3.1772,3.1927,3.1947,3.1823,3.1825,3.1826,0,3.1238,3.1285,3.1326,3.1356,3.1378,3.1427,3.1458,3.1465,3.1498,3.1543,3.1578,3.163,3.1671,3.1756,3.1776,3.1824,3.182,3.1871,3.1827,3.1823,3.1817,3.1813,3.1816,3.1878,3.188,3.1881,3.1882,0,3.1357,3.1361,3.1405,3.1452,3.1489,3.1526,3.1562,3.1587,3.1599,3.1636,3.1689,3.1721,3.1785,3.1836,3.1883,3.1904,3.1894,3.1896,3.1908,3.1906,3.1898,3.19,3.1753,3.1891,3.189,3.189,3.1889,3.1889,3.144,3.148,3.1515,3.1564,3.1592,3.1625,3.1665,3.1683,3.1727,3.1779,3.1781,3.1838,3.1873,3.1936,3.1959,3.2003,3.1988,3.2007,3.2011,3.2015,3.2018,3.1893,3.2013,3.2012,3.2012,3.2012,3.2012,0,3.1556,3.1577,3.1623,3.1672,3.171,3.1699,3.1737,3.177,3.182,3.1853,3.1894,3.1954,3.2003,3.2027,3.2075,3.2106,3.2102,3.2118,3.2114,3.2118,3.2031,3.2013,3.2119,3.2119,3.2119,3.2119,3.2119,3.2119,3.1621,3.1688,3.1696,3.1776,3.1797,3.1852,3.1875,3.1905,3.1931,3.1998,3.2038,3.2054,3.2083,3.2132,3.2176,3.2182,3.2199,3.2216,3.2219,3.2136,3.2125,3.2115,3.2098,3.222,3.222,3.2303,3.2304,3.2304]},{"header":{"parameterUnit":"m.s-1","parameterCategory":1,"la1":30.2991,"la2":30.254,"lo1":-89.0895,"lo2":-89.0444,"dy":0.0017,"dx":0.0017,"nx":28,"ny":28,"refTime":"2025-08-22T21:00:00:Z","depth":0,"parameterNumber":3,"parameterNumberName":"V-component_of_WINDS"},"data":[0,0,0,0,0,0,0,0,0,0,0,0,0,0,0,0,0,0,0,0,0,0,0,0,0,0,0,0,0,0,0,0,0,0,0,0,0,0,0,0,0,0,0,0,0,0,0,0,0,0,0,0,0,0,0,0,0,0,-0.0317,-0.0317,0,-0.033,-0.033,-0.033,-0.0339,-0.0339,-0.0339,-0.034,-0.0352,-0.0352,-0.0353,0,0,0,0,0,0,0,0,0,0,0,0,0,-0.0298,-0.0299,-0.0317,-0.0317,-0.0317,-0.033,-0.033,-0.033,-0.0339,-0.0339,-0.034,-0.034,-0.0352,-0.0352,-0.0353,0,0,0,0,0,0,0,0,0,0,0,0,0,-0.0308,-0.0299,-0.0317,-0.0323,-0.0324,-0.033,-0.033,-0.033,-0.0339,-0.0339,-0.034,-0.034,-0.0352,-0.0352,-0.0353,-0.0353,0,0,-0.0354,-0.0354,0,0,0,0,0,0,0,0,-0.0308,-0.0309,-0.0322,-0.0323,-0.0323,-0.0333,-0.0328,-0.0338,-0.0339,-0.0333,-0.034,-0.034,-0.0346,-0.0347,-0.0349,-0.0354,-0.0354,-0.0354,-0.0354,-0.0354,-0.0355,0,0,0,0,0,0,0,-0.0307,-0.0309,-0.0322,-0.0322,-0.0323,-0.0325,-0.0327,-0.033,-0.0339,-0.0334,-0.0335,-0.0336,-0.0346,-0.0348,-0.0349,-0.0354,-0.0354,-0.0354,-0.0355,-0.0355,-0.036,-0.036,0,0,0,0,0,0,-0.0306,-0.0308,-0.0321,-0.0322,-0.0316,-0.0325,-0.0327,-0.033,-0.0339,-0.034,-0.0336,-0.0336,-0.0348,-0.0349,-0.035,-0.0351,-0.0354,-0.0355,-0.0355,-0.036,-0.036,-0.036,0,0,0,0,0,0,-0.0305,-0.0307,-0.0321,-0.0315,-0.0317,-0.0326,-0.0329,-0.033,-0.0332,-0.034,-0.0342,-0.0337,-0.0348,-0.0349,-0.0352,-0.0351,-0.0355,-0.0355,-0.0361,-0.036,-0.036,-0.0353,0,0,0,0,0,0,-0.0305,-0.0306,-0.0307,-0.0315,-0.0318,-0.0323,-0.0329,-0.033,-0.0333,-0.0334,-0.0341,-0.0343,-0.0348,-0.0352,-0.0353,-0.0352,-0.0356,-0.0361,-0.036,-0.036,-0.0353,-0.0352,-0.0352,0,0,0,0,0,-0.0304,-0.0304,-0.0307,-0.0308,-0.0318,-0.0323,-0.0325,-0.0331,-0.0333,-0.0333,-0.0339,-0.0343,-0.0351,-0.0352,-0.0353,-0.0352,-0.0361,-0.036,-0.036,-0.0353,-0.0352,-0.0352,0,0,0,0,0,0,-0.0295,-0.0305,-0.0308,-0.0311,-0.0316,-0.0325,-0.0326,-0.033,-0.0334,-0.0335,-0.0342,-0.0343,-0.0346,-0.0349,-0.035,-0.0353,-0.0356,-0.0356,-0.0351,-0.035,-0.0349,-0.0348,-0.0356,0,0,0,0,0,-0.0293,-0.0297,-0.0305,-0.0307,-0.031,-0.0317,-0.032,-0.0324,-0.0329,-0.0332,-0.0337,-0.0342,-0.0346,-0.0348,-0.0352,-0.0354,-0.0355,-0.0354,-0.0353,-0.0353,-0.0352,-0.0354,-0.0353,-0.036,-0.036,-0.036,0,0,-0.0289,-0.0296,-0.0297,-0.0305,-0.031,-0.0313,-0.0319,-0.0322,-0.0325,-0.0332,-0.0335,-0.034,-0.0346,-0.0348,-0.0349,-0.0351,-0.0351,-0.0352,-0.0352,-0.0352,-0.0353,-0.0353,-0.0352,-0.0359,-0.0359,-0.0359,0,0,-0.0285,-0.029,-0.0292,-0.0296,-0.0303,-0.0309,-0.0309,-0.0317,-0.032,-0.0324,-0.033,-0.0333,-0.0339,-0.0343,-0.0346,-0.0343,-0.0347,-0.0344,-0.0341,-0.0342,-0.0341,-0.0341,-0.034,-0.0339,-0.0344,-0.0344,-0.0344,0,-0.0279,-0.0285,-0.0292,-0.0295,-0.0299,-0.0306,-0.0308,-0.0312,-0.032,-0.0322,-0.0324,-0.0332,-0.0337,-0.034,-0.034,-0.0342,-0.0342,-0.0343,-0.0341,-0.034,-0.034,-0.0339,-0.0339,-0.0344,-0.0344,-0.0344,-0.0344,0,-0.0278,-0.0282,-0.0283,-0.029,-0.0294,-0.0296,-0.0304,-0.0306,-0.031,-0.0315,-0.0319,-0.0325,-0.033,-0.0331,-0.0335,-0.0335,-0.0336,-0.0339,-0.0343,-0.0339,-0.0338,-0.0338,-0.0343,-0.0343,-0.0344,-0.0344,0,0,-0.0267,-0.028,-0.028,-0.0283,-0.0292,-0.0295,-0.0298,-0.0303,-0.0305,-0.031,-0.0313,-0.0318,-0.0322,-0.0325,-0.0329,-0.033,-0.0328,-0.0333,-0.0334,-0.0332,-0.0328,-0.0326,-0.0325,-0.0331,-0.0331,-0.0331,-0.0328,0,-0.0264,-0.027,-0.0276,-0.028,-0.0283,-0.0291,-0.0293,-0.0298,-0.0303,-0.0307,-0.0312,-0.0315,-0.0319,-0.0321,-0.0323,-0.0328,-0.0327,-0.0328,-0.0333,-0.0333,-0.0331,-0.0325,-0.0322,-0.0319,-0.0328,-0.0327,-0.0327,0,-0.026,-0.0266,-0.0269,-0.0278,-0.028,-0.0282,-0.0288,-0.0291,-0.0297,-0.03,-0.0304,-0.0309,-0.0313,-0.0316,-0.032,-0.0321,-0.0323,-0.0326,-0.0326,-0.0326,-0.033,-0.0325,-0.0318,-0.0318,-0.0327,-0.0327,-0.0327,0,-0.0252,-0.026,-0.0263,-0.0266,-0.0276,-0.0278,-0.0282,-0.0288,-0.0291,-0.0296,-0.0298,-0.0303,-0.0306,-0.031,-0.0316,-0.0318,-0.032,-0.0324,-0.0323,-0.0322,-0.0322,-0.0322,-0.0316,-0.0324,-0.0324,-0.0324,-0.0324,0,-0.0247,-0.0249,-0.026,-0.0262,-0.0264,-0.0272,-0.0274,-0.0279,-0.0285,-0.0288,-0.0294,-0.0297,-0.0305,-0.0308,-0.0313,-0.0316,-0.0317,-0.032,-0.0321,-0.0319,-0.0319,-0.032,-0.0321,-0.0324,-0.0324,-0.0324,-0.0324,0,-0.0238,-0.0245,-0.0249,-0.0259,-0.0261,-0.0262,-0.027,-0.0272,-0.0278,-0.0281,-0.0283,-0.0291,-0.0295,-0.0302,-0.0308,-0.0312,-0.0314,-0.0316,-0.0312,-0.0312,-0.0311,-0.0311,-0.0305,-0.0305,-0.0313,-0.0313,-0.0313,0,-0.0234,-0.0236,-0.0246,-0.0248,-0.0252,-0.0256,-0.026,-0.0268,-0.0271,-0.0278,-0.0279,-0.0284,-0.0289,-0.0296,-0.0302,-0.0307,-0.0309,-0.0307,-0.031,-0.0308,-0.0309,-0.0308,-0.0309,-0.0306,-0.0306,-0.0306,-0.0305,0,-0.0227,-0.023,-0.0235,-0.0241,-0.0245,-0.025,-0.0255,-0.0257,-0.0266,-0.0269,-0.0274,-0.0277,-0.0284,-0.0289,-0.0295,-0.0299,-0.0304,-0.0305,-0.0305,-0.0302,-0.03,-0.0301,-0.0309,-0.0305,-0.0305,-0.0305,-0.0305,-0.0305,-0.022,-0.0222,-0.0229,-0.0234,-0.0239,-0.0244,-0.0247,-0.0252,-0.0257,-0.0263,-0.0268,-0.0272,-0.0279,-0.0287,-0.0291,-0.0294,-0.0296,-0.0296,-0.0296,-0.0296,-0.0295,-0.03,-0.0296,-0.0296,-0.0296,-0.0296,-0.0296,0,-0.0212,-0.0218,-0.0222,-0.023,-0.0234,-0.0238,-0.0245,-0.0248,-0.0252,-0.0257,-0.0262,-0.0268,-0.0272,-0.0279,-0.0285,-0.0286,-0.0288,-0.0287,-0.0287,-0.0288,-0.0293,-0.0293,-0.0285,-0.0285,-0.0285,-0.0285,-0.0285,-0.0285,-0.0209,-0.0213,-0.0217,-0.0223,-0.0229,-0.0233,-0.0237,-0.0241,-0.0246,-0.0252,-0.0256,-0.0261,-0.0267,-0.0273,-0.0278,-0.028,-0.0281,-0.0279,-0.0282,-0.0287,-0.0288,-0.0288,-0.0288,-0.028,-0.028,-0.0276,-0.0276,-0.0276]}]]